Regional Weather Roundup
Issued by NWS Charleston, WV

Home | Current Version | Previous Version | Graphics & Text | Print | Product List | Glossary On
Versions: 1 2 3 4 5 6 7 8 9 10 11 12 13 14 15 16 17 18 19 20 21 22 23 24 25 26 27 28 29 30 31 32 33 34 35 36 37 38 39 40 41 42 43 44 45 46 47 48 49 50
000
ASUS41 KRLX 171510
RWRRLX
West Virginia Regional Weather Roundup
National Weather Service Charleston WV
1000 AM EST WED DEC 17 2014

Note: "fair" indicates few or no clouds below 12,000 feet with no
significant weather and/or obstructions to visibility.

WVZ003-171600-
Northern Panhandle of West Virginia

CITY           SKY/WX    TMP DP  RH WIND       PRES   REMARKS
WHEELING       CLOUDY    33  30  88 W18G26    30.09R
$$

WVZ009-171600-
Northwest West Virginia

CITY           SKY/WX    TMP DP  RH WIND       PRES   REMARKS
PARKERSBURG    LGT SNOW  34  30  85 W9G16     30.20R FOG
$$

WVZ006-171600-
Western West Virginia

CITY           SKY/WX    TMP DP  RH WIND       PRES   REMARKS
HUNTINGTON     CLOUDY    35  32  88 VRB6      30.22R
$$

WVZ015-171600-
West Central West Virginia

CITY           SKY/WX    TMP DP  RH WIND       PRES   REMARKS
CHARLESTON     DRIZZLE   36  31  82 W10G18    30.20R
$$

WVZ022-031-171600-
North Central West Virginia

CITY           SKY/WX    TMP DP  RH WIND       PRES   REMARKS
CLARKSBURG     CLOUDY    36  31  82 W9        30.12R
MORGANTOWN     CLOUDY    36  30  79 VRB7      30.11R
$$

WVZ025-035-042-045-171600-
Southern West Virginia

CITY           SKY/WX    TMP DP  RH WIND       PRES   REMARKS
BECKLEY        FLURRIES  36  33  89 W15       30.12R
LOGAN          MIX PCPN  36  36 100 VRB5      30.18R
BLUEFIELD      LGT RAIN  37  34  89 NW9       30.11R
LEWISBURG      CLOUDY    40  33  75 W8        30.10R
$$

WVZ047-171600-
Northern Mountains of West Virginia

CITY           SKY/WX    TMP DP  RH WIND       PRES   REMARKS
ELKINS         FLURRIES  35  33  92 W6        30.10R
$$

WVZ052-171600-
Eastern Panhandle of West Virginia

CITY           SKY/WX    TMP DP  RH WIND       PRES   REMARKS
MARTINSBURG    CLOUDY    49  34  56 VRB6      30.01R
PETERSBURG     PTSUNNY   44  28  53 SE8       30.03R
$$



USA.gov is the U.S. government's official web portal to all federal, state and local government web resources and services.